Find Starlink 31923

NORAD ID: 60600 Int'l Des: 2024-150 Owner: SPXS Country: US Constellation: starlink operational
LEOCIRCULAR

現在のビュー

3D地球を読み込み中...

About Starlink 31923

Starlink 31923 (NORAD 60600) is a starlink constellation satellite (v2 mini) launched Aug 20, 2024 by SPXS of US. It operates in LEO, CIRCULAR orbit with a mass of 730.00 kg.

次回通過

Passes for default location (London). Set your location on the main map for personalized predictions.

高度履歴

Loading altitude history...

軌道要素

1 60600U 24150T 26265.03296047 .00000584 00000-0 28430-4 0 9994
2 60600 53.1596 114.2374 0001218 96.8205 263.2936 15.34385964118118
Epoch: Sep 22, 2026 • Age: 20 hours

現在のステータス

高度 479.5 km
遠地点 / 近地点 N/A
速度 7.63 km/s
衛星直下点 -46.71°S, 103.87°E
打ち上げ日 Aug 20, 2024
運用期間 2 years
タイプ internet

技術仕様

分類 Payload
質量 730.00 kg
乾燥質量 700.00 kg
長さ 0.30 m
スパン 29.00 m
形状 ? Box + pan
製造者 SPXS
バスタイプ Starlink V2M
フェーズステータス In Orbit
所有者/国 SPXS/US

Most Searched